Flag for US Virgin Islands Weather past 2 weeks in Charlotte Amalie, US Virgin Islands

Now
83 °F

Sunny.


Feels Like: 89 °F
Forecast: 80 / 87 °F
Wind: 10 mph from East

Location: Cyril E. King International Airport

Current Time: Aug 5, 2015 at 7:18:37 AM

Latest Report: Aug 5, 2015 at 6:53 AM


Visibility: 10 mi

Pressure: 30.03 "Hg

Humidity: 72%

Dew point: 73 °F

Location of Charlotte AmalieLocation

Historic Weather in Charlotte Amalie — Graph

°F

Charlotte Amalie temperature yesterday

Maximum temperature yesterday: 92 °F (at 9:53 AM)
Minimum temperature yesterday: 83 °F (at 2:53 AM)
Average temperature yesterday: 86 °F

Past Weeks' High & Low Weather Summary

 TemperatureHumidityPressure
High93 °F (Jul 27, 10:53 AM)88% (Jul 22, 12:53 AM)30.12 "Hg (Jul 22, 12:53 AM)
Low80 °F (Jul 25, 4:53 AM)42% (Aug 1, 2:53 PM)29.94 "Hg (Aug 2, 4:53 PM)
Average85 °F70%30.03 "Hg
* Reported Jul 21 5:53 AM — Aug 5 5:53 AM, Charlotte Amalie, Weather by CustomWeather, © 2015

Note: Actual official high and low records may vary slightly from our data, if they occured in-between our weather recording intervals... More about our weather records

Advertising

Charlotte Amalie weather history for previous 24 hours

 ConditionsComfort  
Time TempWeatherWind HumidityBarometerVisibility
5:53 AM
Wed, Aug 5
82 °FClear.8 mph74%30.02 "Hg10 mi
4:53 AM82 °FClear.7 mph74%30.02 "Hg10 mi
3:53 AM82 °FClear.7 mph72%30.02 "Hg10 mi
2:53 AM83 °FClear.8 mph70%30.02 "Hg10 mi
1:53 AM82 °FClear.10 mph74%30.03 "Hg10 mi
12:53 AM83 °FClear.10 mph72%30.04 "Hg10 mi
11:53 PM
Tue, Aug 4
83 °FClear.12 mph72%30.06 "Hg10 mi
10:53 PM83 °FClear.7 mph72%30.07 "Hg10 mi
9:53 PM84 °FClear.17 mph70%30.06 "Hg10 mi
8:53 PM84 °FClear.13 mph70%30.05 "Hg10 mi
7:53 PM84 °FPassing clouds.13 mph72%30.04 "Hg10 mi
6:53 PM85 °FClear.14 mph70%30.02 "Hg10 mi
5:53 PM87 °FPassing clouds.14 mph63%30.02 "Hg10 mi
4:53 PM90 °FPassing clouds.15 mph56%30.01 "Hg10 mi
3:53 PM91 °FScattered clouds.16 mph52%30.01 "Hg10 mi
2:53 PM91 °FScattered clouds.17 mph50%30.02 "Hg10 mi
1:53 PM92 °FPartly sunny.18 mph54%30.03 "Hg10 mi
12:53 PM91 °FScattered clouds.14 mph56%30.05 "Hg10 mi
11:53 AM92 °FPartly sunny.17 mph54%30.06 "Hg10 mi
10:53 AM90 °FPartly sunny.13 mph57%30.06 "Hg10 mi
9:53 AM92 °FPassing clouds.17 mph52%30.07 "Hg10 mi
8:53 AM89 °FPassing clouds.15 mph61%30.07 "Hg10 mi
7:53 AM86 °FPassing clouds.13 mph67%30.07 "Hg10 mi
Weather by CustomWeather, © 2015

See weather overviewHow to use our weather pages